Powrót do katalogu

COSMOS 1994

AktywnyMilitariaPO
NORAD 19785·PAYLOAD·🇷🇺 Russia

Wystrzelony Feb 10, 1989 z Plesetsk Cosmodrome

Loading…

Następne Przeloty (najbliższe 24 godziny)

TLE

ŚwieżeSource: Space-Track

Epoka: Sep 14, 2026, 13:20 UTC

1 19785U 89009A   26257.55580147  .00000017  00000-0  35177-4 0  9998
2 19785  82.6187 294.8780 0014113 105.5119  49.5331 12.64344306734679

Śledź COSMOS 1994 w czasie rzeczywistym z AllMySat

Download on the App Store